237P/LINEAR (2016)

Japanese version
Home page
Updated on April 13, 2018

---------------------------------------------------------------------

* Profile

* Pictures

* Orbital Elements

Epoch 2016 Oct. 19.0 TT = JDT 2457680.5
T 2016 Oct. 11.67398 TT                                 MPCW
q   1.9848440            (2000.0)            P               Q
n   0.14990668     Peri.   25.04123     -0.00319121     +0.97540926
a   3.5095820      Node   245.43325     -0.95343654     -0.06942948
e   0.4344500      Incl.   14.02310     -0.30157682     +0.20918012
P   6.57
From 462 observations 2002 May 17-2017 Nov. 23, mean residual 0".6.

* Finding Charts

* Magnitudes Graph

        H = 15.0  G = 0.15               [    ,-194]  (             - 2016 Mar. 31)
        m1 = -12   + 5 log d + 75 log r  [-194,   0]  (2016 Mar. 31 - 2016 Oct. 11)
        m1 =   0.0 + 5 log d + 35 log r  [   0, 380]  (2016 Oct. 11 - 2017 Oct. 26)
        H = 15.0  G = 0.15               [ 380,    ]  (2017 Oct. 26 -             )

---------------------------------------------------------------------

The orbital elements are published on M.P.E.C. 2018-F152.
The charts are made with StellaNavigator Ver.8 (AstroArts).
The magnitudes graphs are made with Comet for Windows.

---------------------------------------------------------------------

Copyright(C) Seiichi Yoshida (comet@aerith.net). All rights reserved.